Regional Weather Roundup
Issued by NWS Sterling, VA

Home | Current Version | Previous Version | Text Only | Print | Product List | Glossary Off
Versions: 1 2 3 4 5 6 7 8 9 10 11 12 13 14 15 16 17 18 19 20 21 22 23 24 25 26 27

000
ASUS41 KLWX 142211
RWRLWX

REGIONAL WEATHER ROUNDUP
NATIONAL WEATHER SERVICE BALTIMORE MD/WASHINGTON DC
500 PM EST THU DEC 14 2017

Note: "FAIR" indicates few or no clouds below 12,000 feet
with no significant weather and/or obstructions to visibility.
 TC=TEMPERATURE CELSIUS

 * =Non NWS site. Station does not report precipitation (e.g. rain,
    snow, etc.), thunder, or fog.

DCZ001-MDZ009-015-VAZ040>042-051-053>054-142300-
WASHINGTON METRO

CITY           SKY/WX    TMP DP  RH WIND       PRES   REMARKS
WASHINGTON NAT MOCLDY    37  17  44 N13       29.99R WCI  29
DULLES         MOCLDY    34  17  50 NW12      29.98R WCI  25
ANDREWS AFB    MOCLDY    36  15  43 NW13      29.96R WCI  27
FT BELVOIR     CLOUDY    38  16  40 NW13      29.98R
QUANTICO       PTCLDY    40  18  41 N13G20    29.99
COLLEGE PARK*  PTCLDY    35  15  44 N7G16     29.98R
LEESBURG*      PTCLDY    34  21  60 N10G18    29.98R WCI  26
MANASSAS*      CLOUDY    36  18  48 N12       29.99R WCI  28
GAITHERSBURG*  CLEAR     31  16  54 VRB5G16   29.98R

$$

MDZ006>007-011-014-142300-
BALTIMORE METRO

CITY           SKY/WX    TMP DP  RH WIND       PRES   REMARKS
BWI AIRPORT    MOCLDY    34  15  46 NW12      29.98R WCI  25
MD SCIENCE CTR   N/A     36  13  38 MISG      29.97R
MARTIN STATE   PTCLDY    34  18  51 W13       30.00R WCI  25
ANNAPOLIS      PTCLDY    36  19  50 VRB5      29.98R
FORT MEADE*    CLEAR     32  18  55 NW5       30.00R

$$

MDZ012-015-019>023-142300-
MARYLAND EASTERN SHORE

CITY           SKY/WX    TMP DP  RH WIND       PRES   REMARKS
OCEAN CITY     CLEAR     35  20  54 NW9       29.97R WCI  28
SALISBURY      CLEAR     35  19  52 N6        29.97R
BAY BRIDGE AP* CLEAR     36  18  48 NW12      29.98R WCI  27
CAMBRIDGE*     CLEAR     37  18  44 NW8       29.98R
EASTON*        PTCLDY    37  16  41 NW12      30.01R

$$

MDZ017>025-142300-
SOUTHERN MARYLAND

CITY           SKY/WX    TMP DP  RH WIND       PRES   REMARKS
PATUXENT RIVER MOCLDY    38  18  44 NW13      29.96R
ST INIGOES     CLEAR     39  18  42 CALM      29.96R
LEONARDTOWN*   CLEAR     36  19  51 N3        29.97R

$$

MDZ003>005-142300-
NORTH CENTRAL MARYLAND

CITY           SKY/WX    TMP DP  RH WIND       PRES   REMARKS
FREDERICK*     PTCLDY    34  12  40 NW9       30.02R WCI  26
HAGERSTOWN APT PTCLDY    29  14  53 NW9       29.98R WCI  20
WESTMINSTER*   NOT AVBL

$$

MDZ501>502-142300-
WESTERN MARYLAND

CITY           SKY/WX    TMP DP  RH WIND       PRES   REMARKS
OAKLAND*       CLOUDY    18  14  86 NW3       29.83R
CUMBERLAND*    CLOUDY    32  18  55 NW6       30.03R

$$

VAZ025>031-142300-
SHENANDOAH VALLEY

CITY           SKY/WX    TMP DP  RH WIND       PRES   REMARKS
WINCHESTER*    PTCLDY    32  18  55 NW8       29.97R WCI  25
FRONT ROYAL*   FAIR      32  19  59 N6        29.95R
LURAY*         MOCLDY    36  21  55 NW7       29.95R
NEW MARKET*    PTCLDY    35  17  47 N7        29.94R
STAUNTON*      CLEAR     36  19  50 N7        29.94R
WAYNESBORO*    PTCLDY    36  18  48 N5        29.91R

$$

WVZ021-048>050-054>055-142300-
EASTERN WEST VIRGINIA PANHANDLE

CITY           SKY/WX    TMP DP  RH WIND       PRES   REMARKS
MARTINSBURG    PTCLDY    31  15  52 NW6       29.98R
PETERSBURG*    CLOUDY    32  21  64 CALM      29.98R

$$

VAZ036>039-050-142300-
CENTRAL FOOTHILLS

CITY           SKY/WX    TMP DP  RH WIND       PRES   REMARKS
CHARLOTTESVILL CLEAR     40  21  46 N7        29.93R
CULPEPER*      FAIR      37  16  42 N5        29.97R
ORANGE*        PTCLDY    36  19  51 CALM      29.94R
GORDONSVILLE*  CLEAR     39  21  48 CALM      29.94R
WARRENTON*     CLOUDY    38  14  37 N6G12     29.96R

$$

VAZ055>057-142300-
NORTH AND CENTRAL PIEDMONT

CITY           SKY/WX    TMP DP  RH WIND       PRES   REMARKS
FREDERICKSBRG* CLEAR     39  20  46 N5        29.96R
STAFFORD*      CLEAR     38  18  42 N5        30.00R

$$

NCZ024-NYZ072-PAZ021-071-VAZ022-071-142300-
OTHER REGIONAL OBSERVATIONS

CITY           SKY/WX    TMP DP  RH WIND       PRES   REMARKS
NEW YORK CITY  CLEAR     28   9  44 VRB5      29.95R
PHILADELPHIA   PTCLDY    32  11  41 NW12      29.97R WCI  23
PITTSBURGH     MOCLDY    25  11  55 NW7       29.98R
ROANOKE        CLOUDY    39  21  48 N9        29.96R
RICHMOND       MOCLDY    43  23  45 NE13      29.95R
RALEIGH        PTCLDY    53  23  31 NW5       29.90R

$$

ANZ530>537-142300-
MARINE OBSERVATIONS

STATION/POSITION TIME  TEMP    WIND        PRES
                       AIR SEA DIR/SP/G
                 (UTC) (F)     (DEG/KT/KT) (MB)
THOMAS PT LIGHT  NOT AVBL

$$





USA.gov is the U.S. government's official web portal to all federal, state and local government web resources and services.